[[{"header":{"parameterUnit":"m.s-1","parameterCategory":1,"la1":30.2991,"la2":30.254,"lo1":-89.0895,"lo2":-89.0444,"dy":0.0017,"dx":0.0017,"nx":28,"ny":28,"refTime":"2024-03-11T03:00:00:Z","depth":0,"parameterNumber":2,"parameterNumberName":"U-component_of_WINDS"},"data":[0,0,0,0,0,0,0,0,0,0,0,0,0,0,0,0,0,0,0,0,0,0,0,0,0,0,0,0,0,0,0,0,0,0,0,0,0,0,0,0,0,0,0,0,0,0,0,0,0,0,0,0,0,0,0,0,0,0,0.4616,0.4617,0,0.4662,0.4662,0.4663,0.4705,0.4705,0.4706,0.4706,0.4753,0.4753,0.4754,0,0,0,0,0,0,0,0,0,0,0,0,0,0.4566,0.4567,0.4616,0.4617,0.4617,0.4662,0.4663,0.4663,0.4705,0.4705,0.4706,0.4707,0.4752,0.4753,0.4754,0,0,0,0,0,0,0,0,0,0,0,0,0,0.4597,0.4567,0.4616,0.4644,0.4646,0.4662,0.4663,0.4663,0.4705,0.4705,0.4706,0.4707,0.4752,0.4753,0.4754,0.4746,0,0,0.4758,0.4758,0,0,0,0,0,0,0,0,0.4596,0.4599,0.4639,0.4642,0.4645,0.4679,0.4662,0.4691,0.4704,0.4682,0.4706,0.4707,0.4727,0.4731,0.4737,0.4748,0.475,0.4758,0.4759,0.4759,0.4759,0,0,0,0,0,0,0,0.4593,0.4597,0.4634,0.4639,0.4643,0.4654,0.4659,0.4668,0.47,0.4684,0.4688,0.4692,0.4729,0.4736,0.4739,0.4751,0.4758,0.4759,0.476,0.476,0.4759,0.4758,0,0,0,0,0,0,0.4587,0.4595,0.4633,0.4636,0.4622,0.4654,0.466,0.4667,0.47,0.4706,0.4692,0.4694,0.4734,0.4737,0.4741,0.4734,0.4759,0.476,0.4761,0.476,0.4759,0.4758,0,0,0,0,0,0,0.4586,0.459,0.4631,0.4616,0.4623,0.4654,0.4662,0.4667,0.4675,0.4706,0.4712,0.4693,0.4735,0.4739,0.4745,0.4736,0.4761,0.4762,0.4761,0.476,0.4759,0.472,0,0,0,0,0,0,0.4584,0.4589,0.4586,0.4616,0.4623,0.4634,0.4661,0.4668,0.4676,0.468,0.4708,0.4714,0.4736,0.4743,0.4746,0.4738,0.4763,0.4762,0.476,0.4759,0.4722,0.4718,0.4714,0,0,0,0,0,0.4582,0.4573,0.4586,0.459,0.462,0.4633,0.4637,0.4663,0.4676,0.4673,0.4693,0.4713,0.4737,0.4743,0.4747,0.4739,0.4762,0.4761,0.4759,0.4724,0.4718,0.4714,0,0,0,0,0,0,0.454,0.4577,0.4592,0.4592,0.4609,0.464,0.4637,0.4656,0.467,0.4673,0.4704,0.471,0.4712,0.4727,0.4733,0.4734,0.4752,0.4751,0.4724,0.4719,0.4715,0.4711,0.4764,0,0,0,0,0,0.4531,0.4539,0.4571,0.4568,0.4576,0.4605,0.4612,0.463,0.465,0.4657,0.4678,0.4696,0.4708,0.4714,0.4727,0.4725,0.4732,0.4722,0.4718,0.4714,0.4712,0.4714,0.471,0.4753,0.4753,0.4753,0,0,0.4512,0.4533,0.4536,0.456,0.4576,0.4583,0.4611,0.4618,0.4624,0.4658,0.4665,0.4681,0.4703,0.4705,0.4707,0.4717,0.4703,0.4712,0.4709,0.4709,0.4712,0.4708,0.4704,0.4752,0.4752,0.4752,0,0,0.4481,0.4497,0.4497,0.4513,0.4536,0.4556,0.4556,0.4585,0.4597,0.4605,0.4631,0.464,0.4659,0.4674,0.4684,0.4661,0.468,0.4665,0.4643,0.4644,0.464,0.4637,0.463,0.4626,0.4663,0.4663,0.4663,0,0.4454,0.4466,0.4495,0.45,0.451,0.4543,0.4543,0.4557,0.4583,0.459,0.4601,0.4627,0.4644,0.4651,0.4646,0.4653,0.4654,0.4661,0.4638,0.4636,0.4634,0.4627,0.4624,0.4661,0.4662,0.4662,0.4662,0,0.4432,0.4441,0.4438,0.4463,0.4473,0.4476,0.4505,0.4512,0.4531,0.455,0.4558,0.458,0.4598,0.4601,0.4619,0.4611,0.4617,0.4633,0.4651,0.4627,0.4621,0.4618,0.4658,0.4659,0.466,0.466,0,0,0.4374,0.4416,0.4415,0.4427,0.4457,0.4464,0.4469,0.4488,0.4493,0.4511,0.4516,0.4533,0.4549,0.456,0.458,0.4581,0.4563,0.4597,0.4598,0.459,0.4556,0.4544,0.454,0.4576,0.4575,0.4575,0.4555,0,0.4347,0.4358,0.4385,0.4387,0.4396,0.4428,0.4433,0.4452,0.447,0.4481,0.4502,0.4513,0.4533,0.454,0.4543,0.4564,0.4556,0.4566,0.4581,0.4582,0.4574,0.4537,0.4523,0.4502,0.4552,0.4552,0.4552,0,0.4317,0.4334,0.4337,0.4368,0.4373,0.4376,0.4396,0.4406,0.4429,0.4442,0.4456,0.4479,0.4487,0.4505,0.4517,0.4523,0.4532,0.4543,0.4543,0.4545,0.4564,0.4537,0.4496,0.4493,0.4548,0.4548,0.4549,0,0.4274,0.4298,0.4303,0.4313,0.4349,0.4351,0.4366,0.4389,0.4399,0.4417,0.4424,0.4442,0.4452,0.4466,0.4493,0.4504,0.4502,0.4523,0.4514,0.4513,0.4511,0.4511,0.4471,0.4517,0.4517,0.4517,0.4518,0,0.4242,0.4242,0.4284,0.4287,0.429,0.4322,0.4323,0.4342,0.4363,0.4371,0.44,0.4407,0.4443,0.4454,0.4476,0.4483,0.4487,0.4499,0.4504,0.4496,0.4494,0.4501,0.4503,0.4517,0.4517,0.4517,0.4517,0,0.4193,0.4221,0.4229,0.4263,0.4272,0.4272,0.4302,0.4307,0.4328,0.4338,0.4342,0.4375,0.439,0.4419,0.4442,0.4457,0.4459,0.4469,0.4451,0.4455,0.4445,0.4445,0.4407,0.4404,0.4452,0.4452,0.4451,0,0.417,0.4172,0.4206,0.4214,0.4228,0.4239,0.425,0.4282,0.4292,0.432,0.4321,0.4339,0.4354,0.4377,0.4404,0.4422,0.4433,0.4418,0.4436,0.4427,0.4433,0.4432,0.4433,0.4414,0.4413,0.4412,0.4412,0,0.4126,0.414,0.4154,0.4174,0.4185,0.4202,0.4221,0.4225,0.4262,0.4272,0.4288,0.43,0.4324,0.4342,0.4364,0.4381,0.4403,0.4407,0.4406,0.4397,0.4386,0.4392,0.444,0.4407,0.4408,0.4408,0.4408,0.4408,0.4089,0.4093,0.4118,0.4133,0.4151,0.4168,0.4174,0.4197,0.4211,0.4233,0.4252,0.4266,0.4292,0.4324,0.434,0.4352,0.4363,0.4361,0.4361,0.436,0.4356,0.4385,0.4357,0.4357,0.4357,0.4357,0.4357,0,0.4047,0.4065,0.4079,0.4104,0.4116,0.4137,0.4159,0.4168,0.418,0.4202,0.4217,0.4237,0.4254,0.4283,0.4303,0.4308,0.4319,0.4312,0.4312,0.4316,0.4346,0.4345,0.4303,0.4303,0.4303,0.4303,0.4303,0.4303,0.4026,0.4033,0.405,0.4067,0.4086,0.4101,0.4112,0.4128,0.4145,0.4166,0.4181,0.42,0.4225,0.4247,0.4265,0.4273,0.4279,0.427,0.4281,0.4308,0.4313,0.4318,0.4317,0.4271,0.4271,0.425,0.4249,0.4249]},{"header":{"parameterUnit":"m.s-1","parameterCategory":1,"la1":30.2991,"la2":30.254,"lo1":-89.0895,"lo2":-89.0444,"dy":0.0017,"dx":0.0017,"nx":28,"ny":28,"refTime":"2024-03-11T03:00:00:Z","depth":0,"parameterNumber":3,"parameterNumberName":"V-component_of_WINDS"},"data":[0,0,0,0,0,0,0,0,0,0,0,0,0,0,0,0,0,0,0,0,0,0,0,0,0,0,0,0,0,0,0,0,0,0,0,0,0,0,0,0,0,0,0,0,0,0,0,0,0,0,0,0,0,0,0,0,0,0,-4.6884,-4.6885,0,-4.698,-4.6981,-4.6982,-4.6914,-4.6911,-4.6908,-4.6905,-4.7001,-4.7007,-4.7012,0,0,0,0,0,0,0,0,0,0,0,0,0,-4.6638,-4.6643,-4.6884,-4.6885,-4.6886,-4.698,-4.6981,-4.6983,-4.6915,-4.6911,-4.6907,-4.6904,-4.7,-4.7006,-4.7012,0,0,0,0,0,0,0,0,0,0,0,0,0,-4.6741,-4.6644,-4.6883,-4.6863,-4.6863,-4.698,-4.6981,-4.6983,-4.6915,-4.6911,-4.6906,-4.6902,-4.6997,-4.7005,-4.7013,-4.7154,0,0,-4.7038,-4.7042,0,0,0,0,0,0,0,0,-4.6735,-4.675,-4.6865,-4.6865,-4.6864,-4.693,-4.693,-4.704,-4.6916,-4.6895,-4.6905,-4.69,-4.6981,-4.699,-4.7018,-4.7159,-4.7163,-4.7039,-4.7044,-4.7047,-4.7049,0,0,0,0,0,0,0,-4.6728,-4.6745,-4.6922,-4.6867,-4.6866,-4.6849,-4.6858,-4.695,-4.6963,-4.6897,-4.6892,-4.6905,-4.698,-4.7011,-4.702,-4.7164,-4.7039,-4.7046,-4.7051,-4.7054,-4.7424,-4.7429,0,0,0,0,0,0,-4.6723,-4.674,-4.6919,-4.6924,-4.6787,-4.6857,-4.6868,-4.6914,-4.6961,-4.6964,-4.6908,-4.6901,-4.6999,-4.7011,-4.7023,-4.7191,-4.7047,-4.7055,-4.7059,-4.742,-4.7426,-4.7431,0,0,0,0,0,0,-4.6718,-4.6739,-4.6915,-4.6831,-4.6852,-4.6866,-4.6918,-4.6918,-4.6949,-4.697,-4.6972,-4.6938,-4.6996,-4.7012,-4.7122,-4.7193,-4.7058,-4.7066,-4.7414,-4.7421,-4.7428,-4.7528,0,0,0,0,0,0,-4.6711,-4.6738,-4.6792,-4.6833,-4.6857,-4.7013,-4.6923,-4.6923,-4.6963,-4.6954,-4.6998,-4.7001,-4.6994,-4.7111,-4.713,-4.7202,-4.7072,-4.7407,-4.7417,-4.7426,-4.7518,-4.7538,-4.7554,0,0,0,0,0,-4.6702,-4.6816,-4.6796,-4.6818,-4.6925,-4.7017,-4.7031,-4.7021,-4.6969,-4.7023,-4.7037,-4.6999,-4.7183,-4.7123,-4.7144,-4.7219,-4.7403,-4.7414,-4.7425,-4.751,-4.7534,-4.7554,0,0,0,0,0,0,-4.6783,-4.6821,-4.6799,-4.6929,-4.6971,-4.7006,-4.7074,-4.7047,-4.7104,-4.7093,-4.7078,-4.7088,-4.7204,-4.7222,-4.7155,-4.7358,-4.7284,-4.73,-4.7341,-4.7364,-4.7382,-4.7374,-4.7079,0,0,0,0,0,-4.6816,-4.6889,-4.6918,-4.703,-4.7052,-4.706,-4.71,-4.7089,-4.7131,-4.7148,-4.7169,-4.7211,-4.7278,-4.7322,-4.7385,-4.7521,-4.7528,-4.7583,-4.7601,-4.7616,-4.763,-4.7702,-4.7726,-4.7468,-4.7468,-4.7468,0,0,-4.6885,-4.6915,-4.6962,-4.7047,-4.7078,-4.7153,-4.7075,-4.7157,-4.7212,-4.716,-4.7265,-4.7283,-4.7328,-4.7452,-4.7508,-4.7471,-4.7703,-4.763,-4.7642,-4.7648,-4.7716,-4.774,-4.7762,-4.7475,-4.7474,-4.7473,0,0,-4.7049,-4.7079,-4.7175,-4.7208,-4.7256,-4.7261,-4.7284,-4.7324,-4.7333,-4.7439,-4.7401,-4.7466,-4.7582,-4.7615,-4.7647,-4.7824,-4.7791,-4.7845,-4.7939,-4.8009,-4.803,-4.8048,-4.811,-4.8132,-4.7858,-4.7859,-4.7859,0,-4.7128,-4.724,-4.7228,-4.7314,-4.7352,-4.7309,-4.7406,-4.7438,-4.7504,-4.7531,-4.7489,-4.7633,-4.7661,-4.7791,-4.7834,-4.7862,-4.7887,-4.7839,-4.8028,-4.8046,-4.8062,-4.8121,-4.8145,-4.7865,-4.7864,-4.7864,-4.7863,0,-4.7334,-4.7412,-4.7484,-4.755,-4.7596,-4.7687,-4.7688,-4.7737,-4.7722,-4.773,-4.7838,-4.787,-4.7938,-4.7968,-4.7954,-4.8096,-4.8072,-4.803,-4.7955,-4.8093,-4.8148,-4.8171,-4.7874,-4.7871,-4.787,-4.7868,0,0,-4.7551,-4.7609,-4.7635,-4.7664,-4.7714,-4.7774,-4.7863,-4.793,-4.7971,-4.8018,-4.8091,-4.819,-4.8151,-4.8188,-4.8177,-4.8239,-4.8376,-4.8189,-4.819,-4.8222,-4.8533,-4.8564,-4.859,-4.8354,-4.8359,-4.8362,-4.8529,0,-4.7716,-4.7871,-4.7863,-4.8008,-4.8079,-4.804,-4.8116,-4.8155,-4.8165,-4.8227,-4.8237,-4.8307,-4.8251,-4.8273,-4.8333,-4.8346,-4.8438,-4.8334,-4.8421,-4.8424,-4.841,-4.8619,-4.8652,-4.8808,-4.855,-4.8554,-4.8557,0,-4.7929,-4.7984,-4.8137,-4.8175,-4.8205,-4.8275,-4.8335,-4.8395,-4.8437,-4.844,-4.8482,-4.8461,-4.8549,-4.8473,-4.8594,-4.8524,-4.8559,-4.857,-4.8576,-4.8583,-4.8498,-4.863,-4.8857,-4.888,-4.8591,-4.8588,-4.8585,0,-4.807,-4.8183,-4.8288,-4.8314,-4.8362,-4.8412,-4.8434,-4.8472,-4.8513,-4.8566,-4.8592,-4.8654,-4.8688,-4.8736,-4.8732,-4.8678,-4.8855,-4.8779,-4.8858,-4.8858,-4.8896,-4.8894,-4.9131,-4.8921,-4.8921,-4.892,-4.892,0,-4.8255,-4.835,-4.8352,-4.8417,-4.8521,-4.8511,-4.8614,-4.8631,-4.8665,-4.8731,-4.8701,-4.8764,-4.8755,-4.8818,-4.8815,-4.8915,-4.8931,-4.8935,-4.8932,-4.8937,-4.8936,-4.8958,-4.8947,-4.8927,-4.8925,-4.8924,-4.8923,0,-4.843,-4.8436,-4.8548,-4.8585,-4.8596,-4.8671,-4.8702,-4.8763,-4.8771,-4.8855,-4.8874,-4.8886,-4.8959,-4.896,-4.9042,-4.904,-4.9162,-4.9148,-4.9148,-4.9145,-4.9224,-4.9216,-4.9483,-4.9516,-4.9286,-4.9288,-4.929,0,-4.8547,-4.8619,-4.8663,-4.8706,-4.8732,-4.8801,-4.8843,-4.8835,-4.888,-4.8934,-4.8988,-4.9057,-4.9112,-4.923,-4.9245,-4.9308,-4.9294,-4.9384,-4.9303,-4.9305,-4.9294,-4.9289,-4.9296,-4.9399,-4.9401,-4.9403,-4.9405,0,-4.8753,-4.8753,-4.8814,-4.8877,-4.8928,-4.8977,-4.9022,-4.9059,-4.9056,-4.9108,-4.9182,-4.9225,-4.9309,-4.9378,-4.9439,-4.946,-4.9433,-4.9431,-4.9452,-4.9456,-4.9453,-4.9454,-4.9189,-4.9424,-4.9422,-4.9421,-4.942,-4.9419,-4.8902,-4.8963,-4.9005,-4.9074,-4.9108,-4.9151,-4.9209,-4.9225,-4.9287,-4.9356,-4.9348,-4.943,-4.9469,-4.9548,-4.9575,-4.9638,-4.9607,-4.9639,-4.9646,-4.9654,-4.9662,-4.9444,-4.965,-4.9649,-4.9649,-4.9648,-4.9648,0,-4.9105,-4.913,-4.9194,-4.9259,-4.9314,-4.9284,-4.9332,-4.9379,-4.9452,-4.9493,-4.9548,-4.9632,-4.9699,-4.972,-4.9784,-4.9831,-4.9819,-4.9848,-4.9843,-4.9849,-4.9687,-4.9661,-4.9856,-4.9856,-4.9856,-4.9856,-4.9856,-4.9856,-4.9218,-4.932,-4.9324,-4.9443,-4.9466,-4.9547,-4.9577,-4.9616,-4.9648,-4.9745,-4.98,-4.9814,-4.9846,-4.9912,-4.9972,-4.9976,-5.0,-5.0034,-5.0033,-4.9881,-4.986,-4.984,-4.9816,-5.004,-5.004,-5.0189,-5.0191,-5.0192]}]]